Location: *
(10.5081°N, 66.9194°W)
Time: 04:41:42
(UTC+00:00)

CSL-04 Rocket - Pass Details

Date: 30 March 2020
Orbit: 807 x 859 km, 98.9° (Epoch: 23 May)

Event Time Altitude Azimuth Distance (km) Brightness Sun altitude
Rises 23:25:00 0° 162° (SSE) 3,370 6.6 -12.2°
Reaches altitude 10° 23:27:22 10° 160° (SSE) 2,428 5.8 -12.8°
Maximum altitude 23:32:43 70° 77° (ENE) 870 3.6 -14.1°
Drops below altitude 10° 23:37:59 10° 354° (N) 2,396 6.2 -15.4°
Sets 23:40:19 0° 352° (N) 3,322 7.0 -16.0°
